Location: Buena Vista
(37.7110°N, 119.7938°W)
Time: 14:23:23
(UTC+00:00)

Cosmos 1844 Rocket - Pass Details

Date: 13 June 2024
Orbit: 824 x 843 km, 71.0° (Epoch: 24 July)

Event Time Altitude Azimuth Distance (km) Brightness Sun altitude
Exits shadow 12:01:40 - 249° (WSW) 2,695 4.7 -6.6°
Reaches altitude 10° 12:02:35 10° 255° (WSW) 2,428 4.5 -6.5°
Maximum altitude 12:06:47 22° 304° (NW) 1,754 4.2 -5.8°
Drops below altitude 10° 12:11:00 10° 354° (N) 2,432 5.5 -5.1°
Sets 12:14:02 0° 10° (N) 3,368 6.6 -4.6°
